Regional Weather Roundup
Issued by NWS Jackson, KY

Home | Current Version | Previous Version | Text Only | Print | Product List | Glossary Off
Versions: 1 2 3 4 5 6 7 8 9 10 11 12 13 14 15 16 17 18 19 20 21 22 23 24 25 26 27 28 29 30 31 32 33 34 35 36 37 38 39 40 41 42 43 44 45 46 47 48 49 50

000
ASUS43 KJKL 251219
RWRJKL

EAST KENTUCKY HOURLY WEATHER ROUNDUP
NATIONAL WEATHER SERVICE JACKSON KY
700 AM EST SUN JAN 25 2015

NOTE: "FAIR" INDICATES FEW OR NO CLOUDS BELOW 12,000 FEET WITH
NO SIGNIFICANT WEATHER AND/OR OBSTRUCTIONS TO VISIBILITY.

* THESE REPORTS ARE NOT UNDER NWS QUALITY CONTROL AND MAY NOT
  REPORT WEATHER SUCH AS PRECIPITATION AND FOG.

KYZ079-080-083-085-087-088-110-112-115-119-120-251300
...EASTERN KENTUCKY...

CITY           SKY/WX    TMP DP  RH WIND       PRES   REMARKS
JACKSON        CLEAR     35  28  75 VRB3      29.80S
6HR MIN TEMP:  32; 6HR MAX TEMP:  35;

LONDON         MOCLDY    35  27  72 SE6       29.81F WCI  30
6HR MIN TEMP:  31; 6HR MAX TEMP:  37;

SOMERSET*      MOCLDY    32  32 100 S5        29.81F WCI  27
MONTICELLO*    MOCLDY    37  31  79 CALM      29.83S
6HR MIN TEMP:  37; 6HR MAX TEMP:  40;

MIDDLESBORO*   MOCLDY    26  25  98 CALM      29.87S
6HR MIN TEMP:  25; 6HR MAX TEMP:  28;

HARLAN APT*    CLOUDY    27  27 100 CALM      29.84F VSB 1/2
HAZARD APT*    SUNNY     37  30  75 S3        29.81
BLACK MTN*       N/A     25  25 100 S8          N/A  WCI  16
PIKEVILLE APT* CLEAR     36  28  75 S7        29.80S WCI  30
BIG SANDY*     MOSUNNY   35  30  82 S5        29.80F WCI  31
6HR MIN TEMP:  34; 6HR MAX TEMP:  37;

MOREHEAD APT*  CLOUDY    34  30  86 CALM      29.79F
ASHLAND*       CLEAR    N/A N/A N/A CALM      29.77F
$$

KYZ035-036-041-042-044-050-067-078-099-251300
...CENTRAL KENTUCKY...

CITY           SKY/WX    TMP DP  RH WIND       PRES   REMARKS
MT STERLING*   MOCLDY    34  32  93 SW7       29.78F WCI  28
FLEMING/MASON* CLOUDY    34  30  87 S7        29.77S WCI  28
DANVILLE*      CLOUDY    34  32  93 SW10      29.78S WCI  26
RICHMOND*      CLOUDY    37  30  75 S12       29.77S WCI  30
LEXINGTON      MOCLDY    34  30  85 S10       29.76F WCI  26
6HR MIN TEMP:  33; 6HR MAX TEMP:  36;

FRANKFORT      MOCLDY    37  30  75 S9        29.73F WCI  30
6HR MIN TEMP:  34; 6HR MAX TEMP:  37;

$$

KYZ091>093-OHZ055-061-077-WVZ005-015-034-035-042-251300
...SOUTHERN OHIO/WEST VIRGINIA...

CITY           SKY/WX    TMP DP  RH WIND       PRES   REMARKS
COVINGTON      CLOUDY    37  30  75 S8        29.71F WCI  31
COLUMBUS       CLOUDY    34  29  82 S3        29.74S
DAYTON         CLOUDY    34  30  85 S6        29.72S FOG     WCI  29
WILMINGTON     MOCLDY    32  28  85 S7        29.72F WCI  26
HUNTINGTON     CLOUDY    34  31  88 SW6       29.79R WCI  29
CHARLESTON     PTCLDY    31  28  89 CALM      29.81R
PINEVILLE*     PTCLDY    29  29 100 MISG      29.87R FOG
BECKLEY        PTCLDY    29  26  89 S5        29.79R WCI  24
BLUEFIELD      CLEAR     30  25  81 W8        29.80R WCI  22
$$

VAZ002-007-008-TNZ017-027-036-066-071-251300
...SOUTHWEST VIRGINIA/EAST TENNESSEE...

CITY           SKY/WX    TMP DP  RH WIND       PRES   REMARKS
WISE*          CLEAR     30  28  93 SW5       29.82S WCI  25
JONESVILLE*    SUNNY     23  21  93 CALM      29.91S
ABINGDON*      CLEAR     29  26  89 CALM      29.88R
BRISTOL        PTCLDY    25  23  92 CALM      29.89S
KNOXVILLE      PTCLDY    34  27  75 SW6       29.88F WCI  29
OAK RIDGE      PTCLDY    29  26  89 CALM      29.90F
CROSSVILLE     PTCLDY    32  27  81 S5        29.83F WCI  27
NASHVILLE      PTCLDY    37  31  78 CALM      29.81S
$$

...KEY TO REMARKS...
VSB - VISIBILITY IN MILES
WCI - WIND CHILL INDEX
HX  - HEAT INDEX

$$


USA.gov is the U.S. government's official web portal to all federal, state and local government web resources and services.